Home   Weather   Taichung   Past weeks

Flag for Taiwan Past Weather in Taichung, Taiwan — Yesterday and Last 2 Weeks

Now
70 °F

Scattered clouds.


Feels Like: 70 °F
Forecast: 64 / 81 °F
Wind: 15 mph from East

Location: Chiang Kai Shek

Current Time: Apr 28, 2017 at 8:47:10 am

Latest Report: Apr 28, 2017 at 8:00 am


Visibility: N/A

Pressure: 30.01 "Hg

Humidity: 57%

Dew Point: 54 °F

Location of TaichungLocation

Past Weather in Taichung — Graph

°F

Taichung Temperature Yesterday

Maximum temperature yesterday: 68 °F (at 12:00 am)
Minimum temperature yesterday: 61 °F (at 4:30 pm)
Average temperature yesterday: 64 °F

High & Low Weather Summary for the Past Weeks

 TemperatureHumidityPressure
High86 °F (Apr 16, 11:00 am)100% (Apr 14, 2:00 am)30.07 "Hg (Apr 14, 2:00 am)
Low61 °F (Apr 27, 4:30 pm)44% (Apr 23, 2:30 pm)29.68 "Hg (Apr 17, 4:30 pm)
Average74 °F85%29.88 "Hg
* Reported Apr 13 7:00 am — Apr 28 7:30 am, Taichung, Weather by CustomWeather, © 2017

Note: Actual official high and low records may vary slightly from our data, if they occured in-between our weather recording intervals... More about our weather records

Advertising

Taichung Weather History for the Previous 24 Hours

Scroll right to see more
 ConditionsComfort  
Time TempWeatherWind HumidityBarometerVisibility
7:30 am
Fri, Apr 28
68 °FScattered clouds.12 mph60%29.98 "HgN/A
7:00 am66 °FScattered clouds.12 mph64%29.98 "HgN/A
6:30 am64 °FScattered clouds.10 mph68%29.98 "HgN/A
6:00 am63 °FBroken clouds.10 mph73%29.98 "HgN/A
5:30 am63 °FBroken clouds.9 mph73%29.98 "HgN/A
5:00 am61 °FPassing clouds.9 mph77%29.98 "HgN/A
4:30 am61 °FPassing clouds.9 mph77%29.98 "HgN/A
4:00 am61 °FPassing clouds.9 mph72%29.98 "HgN/A
3:30 am61 °FPassing clouds.12 mph72%29.98 "HgN/A
3:00 am61 °FPassing clouds.12 mph72%29.95 "HgN/A
2:30 am61 °FPassing clouds.12 mph77%29.98 "HgN/A
2:00 am63 °FPassing clouds.12 mph73%29.98 "HgN/A
1:30 am63 °FPassing clouds.13 mph77%29.98 "HgN/A
1:00 am61 °FPassing clouds.12 mph83%29.98 "HgN/A
12:30 am63 °FPassing clouds.12 mph77%29.98 "HgN/A
12:00 am63 °FPassing clouds.13 mph77%30.01 "HgN/A
11:00 pm
Thu, Apr 27
61 °FLight rain. Passing clouds.13 mph83%30.01 "HgN/A
10:30 pm61 °FScattered showers. Passing clouds.13 mph83%30.01 "HgN/A
10:00 pm61 °FPassing clouds.13 mph88%30.01 "HgN/A
9:30 pm61 °FPassing clouds.12 mph88%30.01 "HgN/A
8:30 pm61 °FLight rain. Passing clouds.13 mph94%30.01 "Hg6 mi
8:00 pm61 °FLight rain. Partly cloudy.13 mph94%30.01 "Hg3 mi
7:34 pm61 °FLight rain. Passing clouds.9 mph94%30.01 "Hg2 mi
6:40 pm61 °FLight rain. Passing clouds.12 mph94%29.98 "Hg3 mi
6:30 pm61 °FLight rain. Passing clouds.13 mph94%29.98 "Hg2 mi
6:00 pm61 °FLight rain. Partly sunny.15 mph94%29.95 "Hg5 mi
5:30 pm61 °FLight rain. Partly sunny.16 mph94%29.95 "Hg5 mi
5:00 pm61 °FLight rain. Partly sunny.15 mph94%29.95 "Hg4 mi
4:30 pm61 °FLight rain. Partly sunny.18 mph94%29.95 "Hg4 mi
4:00 pm63 °FLight rain. Partly sunny.18 mph88%29.95 "Hg4 mi
3:30 pm63 °FLight rain. Partly sunny.15 mph88%29.95 "Hg4 mi
3:00 pm63 °FLight rain. Partly sunny.15 mph88%29.95 "Hg4 mi
2:30 pm63 °FLight rain. Partly sunny.18 mph88%29.92 "Hg5 mi
2:00 pm63 °FLight rain. Partly sunny.22 mph88%29.95 "Hg4 mi
1:30 pm63 °FLight rain. Partly sunny.21 mph88%29.95 "HgN/A
12:30 pm66 °FLight rain. Broken clouds.18 mph73%29.95 "HgN/A
11:50 am66 °FBroken clouds.22 mph73%29.98 "HgN/A
11:30 am66 °FBroken clouds.23 mph78%29.98 "HgN/A
10:30 am64 °FLight rain. Partly sunny.29 mph83%29.98 "HgN/A
9:44 am64 °FLight rain. Broken clouds.29 mph94%29.98 "Hg4 mi
9:30 am64 °FLight rain. Broken clouds.30 mph94%29.98 "Hg3 mi
9:19 am64 °FLight rain. Broken clouds.30 mph94%29.98 "Hg3 mi
8:55 am64 °FLight rain. Broken clouds.23 mph100%29.98 "Hg2 mi
8:30 am64 °FRain. Broken clouds.25 mph100%29.95 "Hg2 mi
8:00 am66 °FSprinkles. Broken clouds.24 mph94%29.95 "HgN/A
Weather by CustomWeather, © 2017

See weather overviewHow to use our weather pages